Orbital Elements at Epoch 2459200.5 (2020-Dec-17.0) TDB
Reference: JPL 26 (heliocentric ecliptic J2000)
Element | Value | Uncertainty (1-sigma) | Units |
e | .1771511303606591 | 4.0993e-08 | |
a | 2.334327926398237 | 8.2406e-09 | au |
q | 1.920799095604336 | 9.6766e-08 | au |
i | 3.119722621254144 | 4.4054e-06 | deg |
node | 313.6323220763917 | 7.7472e-05 | deg |
peri | 201.6363600403128 | 7.8356e-05 | deg |
M | 293.2186680462273 | 1.3793e-05 | deg |
tp | 2459442.153896062882 (2021-Aug-15.65389606) | 5.0592e-05 | TDB |
period | 1302.690438143061 3.57 | 6.8981e-06 1.889e-08 | d yr |
n | .2763511494819653 | 1.4633e-09 | deg/d |
Q | 2.747856757192138 | 9.7004e-09 | au |
|
| | Orbit Determination Parameters
Additional Information
|